Terminal Aerodrome Forecast
Issued by NWS

Home | Current Version | Previous Version | Text Only | Print | Product List | Glossary On
Versions: 1 2 3 4 5 6 7 8 9 10 11 12 13 14 15 16 17 18
000
FTUS43 KIND 222300
TAFHUF
TAF
KHUF 222323Z 2300/2324 13008KT 5SM -RA BR BKN025 OVC050
     FM230200 14012KT 2SM -RA BR SCT004 OVC007 WS015/20040KT
     FM230700 18011G17KT 4SM -RA BR OVC008
     FM231200 21007KT 5SM BR VCSH OVC025
     FM231700 24006KT P6SM OVC040=

USA.gov is the U.S. government's official web portal to all federal, state and local government web resources and services.